TIME,DELAY(SENSOR),PRES,T(CTD),SAL,OXYGEN,RAWTEMP,T(OPTODE),TCPHASE,FLUOR,BETA(BETA700),BETA(BETA412),BETA(BETA440),CDOM,C(CSC),ED(ED412.40),ED(ED444.00),ED(ED489.70),ED(ED554.30),LU(LU411.80),LU(LU443.40),LU(LU489.60),LU(LU554.10),COMP,TILTX,TILTX(TILTY),CHECK
1379540014,5808,497.4100036621094000,6.8152999877929690,34.1002998352050800,91.3564071655273400,593.3231201171875000,6.7997441291809080,47.5215110778808600,51,104,85,79,77,15267,2147745718,2147427840,2148007835,2147871762,2147625462,2147078729,2148246445,2147202377,1432,4,13,2574
1379540191,5810,484.0599975585937500,7.0834999084472660,34.0988006591796900,100.6147994995117200,585.4902954101562000,7.0519919395446780,46.4030494689941400,50,104,85,79,76,15269,2147739812,2147425206,2148007981,2147869641,2147626788,2147084160,2148240384,2147201819,3081,4,13,25686
1379540306,5809,473.6799926757812500,7.3078999519348145,34.0938987731933600,108.3628005981445300,578.2482299804688000,7.2847180366516110,45.4897499084472660,50,102,88,80,76,15267,2147742893,2147424905,2148007753,2147874048,2147627291,2147077778,2148239945,2147204461,2623,4,13,26093
1379540435,5809,461.7999877929687500,7.5672998428344730,34.0948982238769500,113.6376037597656200,570.1132812500000000,7.5455698966979980,44.8331108093261700,51,105,87,79,75,15268,2147745920,2147426185,2148007954,2147874422,2147623853,2147081883,2148238098,2147200731,895,3,12,55873
1379540550,5806,451.1300048828125000,7.7090001106262210,34.0904998779296900,121.3374023437500000,565.4229125976562000,7.6957111358642580,44.0137481689453100,50,105,84,79,76,15266,2147744786,2147427218,2148010230,2147873627,2147621878,2147082971,2148239789,2147202962,3029,4,13,48846
1379540665,5809,440.0899963378906000,7.9463000297546390,34.0884017944335940,131.4947052001953000,558.2839965820312000,7.9238610267639160,42.9606704711914060,50,104,88,80,74,15265,2147743972,2147426139,2148010057,2147871625,2147621677,2147081042,2148240384,2147202953,2478,3,13,36505
1379540782,5807,428.9200134277344000,8.1621999740600590,34.0904006958007800,138.3988037109375000,551.2625732421875000,8.1478347778320310,42.2327194213867200,50,104,86,80,74,15264,2147742189,2147427126,2148008621,2147871094,2147619776,2147088073,2148233764,2147205083,1700,4,13,64573
1379540897,5810,418.1700134277344000,8.4322996139526370,34.0932998657226560,144.7857055664062500,542.6119995117188000,8.4232177734375000,41.5414695739746100,50,108,88,79,72,15266,2147739702,2147428672,2148007844,2147872557,2147618998,2147091382,2148232374,2147205028,1694,4,13,13281
1379541026,5809,406.9299926757812500,8.7269001007080080,34.0950012207031250,155.7310028076172000,533.4617919921875000,8.7138519287109380,40.4954414367675800,50,105,85,81,72,15265,2147737746,2147428096,2148008155,2147871707,2147616402,2147086491,2148236269,2147202669,2279,4,13,5276
1379541177,5807,395.4899902343750000,9.1296997070312500,34.1116981506347660,161.4622955322265600,520.6115112304688000,9.1209068298339840,39.8282814025878900,50,106,83,80,73,15264,2147739090,2147426121,2148006893,2147869577,2147615012,2147091227,2148231241,2147209581,1046,4,13,10179
1379541360,5808,381.8500061035156000,9.4735002517700200,34.1184005737304700,168.2059020996093800,509.3483886718750000,9.4766683578491210,39.1299705505371100,50,105,88,80,71,15263,2147735122,2147426514,2148006738,2147872246,2147615396,2147096630,2148225307,2147204416,355,4,13,1981
1379541493,5808,369.3699951171875000,9.8164997100830080,34.1164016723632800,181.6851043701172000,499.1447143554687500,9.7981758117675780,37.9987106323242200,50,104,87,80,70,15262,2147734692,2147426477,2148005138,2147870528,2147611529,2147096237,2148230765,2147206354,653,3,13,31534
1379541608,5808,358.4700012207031000,10.1114997863769530,34.1273994445800800,188.2174072265625000,489.1661987304687500,10.1118898391723630,37.3922691345214840,48,105,88,79,70,15262,2147737270,2147426505,2148008777,2147872182,2147609170,2147103698,2148226020,2147201371,2612,3,13,13132
1379541725,5811,347.5799865722656000,10.3990001678466800,34.1389999389648440,192.8516998291015600,480.2766113281250000,10.3908100128173830,36.9418983459472660,49,105,86,79,70,15263,2147733613,2147426605,2148005348,2147871808,2147608795,2147108562,2148223497,2147206564,1410,3,13,32529
1379541852,5809,336.3900146484375000,10.6302003860473630,34.1423988342285160,192.8627929687500000,473.0314941406250000,10.6177501678466800,36.8198394775390600,49,104,84,79,70,15263,2147735506,2147428114,2148007387,2147873563,2147606646,2147103899,2148224640,2147206281,426,4,13,58257
1379541981,5804,325.7500000000000000,11.1773996353149410,34.1577987670898440,196.5861968994140600,454.2994079589844000,11.2030096054077150,36.2751617431640600,48,103,86,79,68,15263,2147731949,2147426505,2148007680,2147871131,2147605522,2147108041,2148221385,2147207451,3233,2,13,6168
1379542120,5809,314.7600097656250000,11.5370998382568360,34.1755981445312500,201.4199066162109400,443.7590026855469000,11.5314197540283200,35.8049087524414060,48,103,85,79,69,15262,2147728886,2147430710,2148015497,2147875931,2147602916,2147109723,2148219428,2147206372,1129,3,13,30061
1379542259,5807,302.9599914550781000,11.8596000671386720,34.1921997070312500,207.9244995117187500,433.5108032226562500,11.8501501083374020,35.2504196166992200,48,104,85,80,67,15261,2147731181,2147431113,2148027318,2147875794,2147600210,2147120886,2148223387,2147206244,1006,4,13,10887
1379542388,5804,292.3200073242187500,12.5192003250122070,34.2229003906250000,209.2335968017578000,412.0643920898437500,12.5153903961181640,34.8340301513671900,48,109,87,80,67,15260,2147727442,2147430043,2148019136,2147871963,2147599149,2147116498,2148218477,2147208365,1206,3,13,30344
1379542527,5807,281.8399963378906000,12.8312997817993160,34.2453994750976560,211.1815948486328000,400.3772888183594000,12.8769903182983400,34.5385589599609400,48,105,85,81,67,15260,2147723318,2147432667,2148036480,2147875410,2147595968,2147126811,2148225910,2147211794,2900,3,13,20313
1379542692,5811,267.9100036621094000,13.6013002395629880,34.2967987060546900,209.4514007568359400,372.1332092285156000,13.7484598159790040,34.2031517028808600,48,104,88,80,66,15259,2147723328,2147433974,2148034569,2147874240,2147593563,2147130971,2148221961,2147207725,1421,3,13,42034
1379542793,5810,257.4100036621094000,14.2632999420166020,34.3484992980957000,209.6571044921875000,355.9414978027344000,14.2466897964477540,33.9456291198730500,48,104,87,79,66,15257,2147720731,2147436132,2148052480,2147873206,2147587008,2147139986,2148228434,2147210861,615,3,13,54381
1379542908,5809,246.4700012207031200,15.0866003036499020,34.4383010864257800,210.6163940429687500,329.0047912597656000,15.0737199783325200,33.4889106750488300,48,105,88,78,65,15254,2147721069,2147449426,2148077650,2147870500,2147586761,2147145462,2148236745,2147211437,96,3,13,40338
1379543049,5805,235.4900054931640600,16.0109996795654300,34.5484008789062500,211.6329040527343800,297.7746887207031000,16.0302791595459000,32.9744415283203100,48,105,84,79,65,15250,2147717504,2147461513,2148117595,2147872164,2147582893,2147158500,2148248128,2147214592,3128,3,14,26114
1379543212,5806,224.8500061035156200,16.7609996795654300,34.6353988647460940,211.5359954833984400,273.9843139648437500,16.7577800750732420,32.6380615234375000,50,106,89,81,64,15248,2147719094,2147507145,2148246345,2147872969,2147578569,2147199451,2148304512,2147219556,2258,2,14,22014
1379543375,5811,213.0500030517578000,17.7427997589111330,34.7565002441406250,209.9629974365234400,242.4806976318359400,17.7201995849609380,32.2798500061035160,51,106,85,80,65,15244,2147720301,2147532937,2148294848,2147868187,2147577234,2147211309,2148331593,2147222272,288,3,14,60243
1379543502,5809,202.0099945068359400,18.2777996063232420,34.8252983093261700,209.5753021240234400,224.0090942382812500,18.2842903137207030,32.0435714721679700,55,110,86,80,64,15237,2147730578,2147603977,2148476918,2147874285,2147577846,2147261613,2148405494,2147230976,49,3,13,49443
1379543557,5806,197.2500000000000000,18.5776996612548830,34.8628997802734400,208.8540954589843800,214.7928009033203000,18.5657501220703120,31.9558792114257800,59,107,87,79,63,15230,2147734857,2147627328,2148521197,2147873462,2147579355,2147279158,2148423853,2147233270,2492,2,15,39397
1379543636,5807,190.6499938964843800,18.8577003479003900,34.9001007080078100,208.4837036132812500,204.8484954833984400,18.8694705963134770,31.8391304016113280,61,108,86,81,63,15232,2147758043,2147750226,2148814646,2147872621,2147583606,2147338944,2148556864,2147238070,1476,2,14,15011
1379543691,5807,186.3099975585937500,19.2103004455566400,34.9472007751464840,208.7960968017578000,194.4299011230468800,19.1877593994140620,31.6788902282714840,63,107,86,79,63,15230,2147761069,2147762358,2148810660,2147871040,2147586889,2147353435,2148554971,2147238601,1154,2,15,52629
1379543746,5809,182.0099945068359400,19.3418998718261720,34.9688987731933600,209.6002960205078000,189.1712036132812500,19.3484401702880860,31.5627098083496100,66,108,88,79,62,15227,2147772370,2147768877,2148800868,2147873042,2147584466,2147353856,2148542208,2147238262,959,3,15,2636
1379543801,5811,177.8300018310547000,19.7127990722656250,35.0190010070800800,210.3641052246093800,177.5437011718750000,19.7038402557373050,31.3629207611084000,66,108,86,79,61,15220,2147800301,2147875638,2149033654,2147876544,2147595730,2147412873,2148642797,2147248356,365,2,14,51832
1379543856,5805,173.8899993896484400,19.8299999237060550,35.0383987426757800,211.5957031250000000,173.4299926757812500,19.8296203613281250,31.2403907775878900,68,110,85,80,63,15219,2147796187,2147834934,2148908626,2147874230,2147592630,2147393910,2148584594,2147243702,3058,2,16,52170
1379543911,5807,169.9499969482422000,19.9279003143310550,35.0471000671386700,212.0314025878906200,170.3144989013672000,19.9248905181884770,31.1747798919677730,70,109,86,80,62,15221,2147800100,2147831378,2148871634,2147874514,2147594477,2147393819,2148561865,2147245549,2743,2,15,24050
1379543996,5811,164.4400024414062500,20.0830993652343750,35.0708999633789060,212.3881988525390600,164.5841979980468800,20.1001605987548830,31.0786399841308600,74,112,88,81,62,15212,2147825481,2147879652,2148934948,2147875483,2147604608,2147416118,2148588928,2147245010,2525,2,15,38001
1379544075,5810,160.1499938964843800,20.2912998199462900,35.0937995910644500,212.9976043701172000,158.6645050048828000,20.2812900543212900,30.9666004180908200,76,112,88,81,62,15209,2147875044,2148020873,2149193243,2147877440,2147624164,2147487268,2148703680,2147257353,2096,2,15,55796
1379544142,5806,156.7200012207031200,20.3705005645751950,35.1045989990234400,213.4004974365234400,155.7825927734375000,20.3694896697998050,30.9066696166992200,77,112,87,81,61,15209,2147939739,2148184813,2149500342,2147878153,2147645321,2147577426,2148826102,2147262838,1200,2,15,28646
1379544233,5807,152.2100067138672000,20.6228008270263670,35.1342010498046900,213.9393005371093800,149.1746978759765600,20.5717792510986330,30.7897796630859380,80,119,87,80,61,15205,2147996288,2148287049,2149656173,2147880210,2147666048,2147624155,2148893540,2147273316,286,2,15,58591
1379544314,5809,148.3699951171875000,20.8367004394531250,35.1579017639160160,214.5007019042968800,141.4244995117187500,20.8091697692871100,30.6570796966552730,87,117,83,81,63,15198,2148116790,2148568237,2150152109,2147882212,2147713545,2147765156,2149099410,2147287003,3354,2,15,46214
1379544393,5810,144.8600006103515600,20.9276008605957030,35.1674995422363300,215.3262023925781200,137.8731994628906200,20.9179801940917970,30.5664691925048830,91,118,88,82,61,15192,2148213284,2148763611,2150452324,2147885650,2147745700,2147863259,2149228196,2147298541,297,2,15,5915
1379544484,5811,140.8600006103515600,21.1198005676269530,35.1822013854980500,215.4573059082031200,131.6585998535156200,21.1084804534912100,30.4775695800781250,97,118,86,82,63,15185,2148428461,2149206994,2151185764,2147895506,2147823305,2148061915,2149520950,2147322212,39,2,15,22238
1379544587,5808,137.1699981689453000,21.3232002258300780,35.1995010375976560,217.0023956298828000,125.0426025390625000,21.3113899230957030,30.3101291656494140,103,115,90,82,61,15175,2148965970,2150366180,2153205568,2147913142,2148019593,2148621147,2150348050,2147385563,3326,2,15,7905
1379544728,5808,133.0200042724609400,21.4216003417968750,35.2083015441894500,218.8294067382812500,121.6257019042968800,21.4162292480468750,30.1711692810058600,110,119,86,81,61,15169,2149637961,2151689709,2155397440,2147938148,2148249005,2149207478,2151205257,2147456978,3070,2,16,785
1379544867,5811,129.0599975585937500,21.6548995971679700,35.2206001281738300,220.7677001953125000,114.3889999389648400,21.6383800506591800,29.9782600402832030,115,117,86,82,62,15169,2149184969,2150465892,2153013248,2147917915,2148084845,2148604736,2150212022,2147382564,2196,2,15,5013
1379545018,5809,124.8000030517578100,21.9465007781982420,35.2313003540039060,224.4837036132812500,105.2985000610351600,21.9176597595214840,29.6745491027832030,119,117,87,81,61,15154,2150428754,2152710363,2156518710,2147962002,2148517540,2149570925,2151541714,2147491346,1987,2,15,11565
1379545145,5809,121.2600021362304700,22.0830993652343750,35.2436981201171900,229.0704956054687500,100.1606979370117200,22.0756206512451170,29.3843498229980470,122,115,92,81,62,15153,2151480960,2154367268,2158840155,2147995721,2148867611,2150223744,2152371830,2147566710,898,1,15,38825
1379545290,5808,116.9199981689453100,22.2658004760742200,35.2500991821289060,232.5178070068359400,94.2708587646484400,22.2567996978759770,29.1444301605224600,114,115,89,80,61,15156,2152051136,2154733705,2158673197,2148004160,2149055478,2150299373,2152215213,2147571995,3399,1,16,30410
1379545393,5808,112.6299972534179700,22.4307994842529300,35.2639999389648440,235.3190002441406200,88.9183807373046900,22.4215698242187500,28.9449195861816400,106,114,86,83,60,15149,2152817042,2155468635,2159078619,2148023186,2149344036,2150589138,2152357732,2147596580,3233,1,15,59144
1379545484,5809,108.9300003051757800,22.6198997497558600,35.2863006591796900,238.0915985107422000,82.7636871337890600,22.6111507415771500,28.7389507293701170,105,112,87,81,59,15161,2153735616,2156435803,2159909732,2148040676,2149749686,2151092150,2152783616,2147642541,3139,2,15,26835
1379545580,5807,104.3700027465820300,22.6930999755859380,35.2840995788574200,239.9940032958984400,79.0573577880859400,22.7253894805908200,28.6055793762207030,98,112,86,81,59,15161,2163690413,2170700370,2178317970,2148417910,2153587318,2157416758,2160067766,2148318528,2736,2,15,62965
1379545647,5805,100.4800033569336000,22.9699993133544920,35.3171997070312500,242.7879943847656200,70.9777069091796900,22.9745998382568360,28.3784408569335940,97,114,85,81,59,15160,2164879670,2171622061,2178417417,2148476013,2154405174,2158196141,2160402459,2148367250,1670,1,16,61001
1379545702,5806,97.3499984741211000,23.1077995300292970,35.3263015747070300,245.2877960205078000,67.0396728515625000,23.0961608886718750,28.2183494567871100,92,118,86,83,59,15150,2165749549,2172053696,2178092598,2148507145,2155050148,2158771547,2160655899,2148392502,790,1,15,52353
1379545757,5808,94.2799987792968800,23.1240997314453120,35.3286018371582000,246.9445953369140600,66.0992736816406200,23.1252002716064450,28.1339607238769530,89,117,90,83,57,15152,2164546523,2169544420,2174094272,2148467675,2154767588,2157853037,2159285522,2148274706,3502,1,16,39881
1379545812,5807,91.4199981689453100,23.2257995605468750,35.3310012817382800,247.8466033935547000,63.0886497497558600,23.2181892395019530,28.0572395324707030,84,119,90,82,57,15154,2169304347,2175309385,2180375195,2148695405,2157054610,2160899154,2162228589,2148561682,2887,1,16,7366
1379545870,5806,88.8300018310546900,23.3001003265380860,35.3326988220214840,248.5440979003906200,60.9129981994628900,23.2854194641113280,28.0000896453857420,81,120,88,83,59,15142,2170315145,2175841837,2180143396,2148761508,2157755401,2161449353,2162355419,2148592822,2917,2,15,13219
1379545925,5807,86.7399978637695300,23.3561992645263670,35.3320007324218750,249.1790924072265600,58.9969902038574200,23.3446407318115230,27.9488792419433600,79,119,90,82,59,15146,2167767195,2171778377,2174598473,2148603419,2156850861,2159732964,2160220242,2148385536,34,2,15,37920
1379545980,5807,85.0299987792968800,23.4092998504638670,35.3315010070800800,250.1495056152343800,56.9301185607910160,23.4085407257080080,27.8814392089843750,81,119,88,83,58,15135,2174164534,2179165412,2182326016,2148900800,2159984329,2163736786,2163849554,2148746934,371,1,16,15950
1379546047,5811,83.2200012207031200,23.4983005523681640,35.3293991088867200,250.9131011962890600,54.6717605590820300,23.4783802032470700,27.8208408355712900,78,121,88,84,56,15132,2181801810,2187804809,2191073325,2149279341,2163821970,2168463488,2167996397,2149168100,301,2,16,19522
1379546126,5810,81.4899978637695300,23.7852993011474600,35.3176002502441400,251.4674072265625000,46.8020782470703100,23.7219295501709000,27.7001304626464840,76,122,91,84,58,15127,2182431350,2187430939,2189351058,2149244205,2164477321,2168656146,2167516617,2149127753,622,2,16,16327
1379546211,5809,79.4499969482421900,24.1287994384765620,35.3175010681152340,252.4380950927734400,34.8836212158203100,24.0913505554199220,27.5126304626464840,75,124,86,85,55,15113,2181242203,2184864621,2185509878,2149177389,2164419821,2167868032,2166219355,2149009609,340,1,15,11823
1379546266,5808,77.5500030517578100,24.1476001739501950,35.3171997070312500,253.6629028320312500,33.4036903381347660,24.1372699737548830,27.4429206848144530,74,124,93,85,61,15115,2194116150,2199245595,2200115136,2149899017,2171417810,2176317522,2173570432,2149761508,3164,1,16,25967
1379546321,5810,75.3899993896484400,24.2887001037597660,35.3172988891601560,253.8327941894531200,29.3926792144775400,24.2617893218994140,27.3868408203125000,73,125,91,83,56,15113,2201185243,2206279698,2206548790,2150309302,2176035245,2181450057,2177641243,2150187227,3409,2,16,63079
1379546376,5809,73.4499969482421900,24.4181995391845700,35.3120002746582000,253.8236999511718800,24.8800907135009770,24.4019699096679700,27.3319606781005860,70,125,93,84,55,15111,2198172736,2201996763,2201399561,2150203401,2174794496,2179204864,2175075876,2149957522,3016,1,16,50562
1379546431,5810,71.9199981689453100,24.6760005950927730,35.3147010803222660,253.6488037109375000,18.4438209533691400,24.6020908355712900,27.2608203887939450,72,124,90,85,56,15101,2203093165,2207210989,2206243328,2150516480,2177899867,2182485705,2177532955,2150241005,2267,2,16,15760
1379546516,5810,70.2200012207031200,24.7884998321533200,35.3209991455078100,253.6271057128906200,12.9843502044677730,24.7720203399658200,27.1953392028808600,69,124,89,84,57,15102,2207781732,2211221814,2209262939,2150905325,2181829284,2186299684,2180097718,2150514203,2440,1,16,51268
1379546595,5809,68.4199981689453100,25.4146003723144530,35.3216018676757800,251.3905944824218800,-4.4998970031738280,25.3173694610595700,27.0765399932861330,68,124,92,83,57,15096,2215542893,2219007259,2216359524,2151436288,2187950473,2192632192,2184649088,2151017856,2240,1,16,36074
1379546884,5807,65.7099990844726600,25.6637001037597660,35.3235015869140600,249.3130950927734400,-16.7474308013916000,25.7004604339599600,27.0156002044677730,64,125,91,86,59,15078,2252990208,2257870500,2253935954,2154324205,2213614637,2220390070,2206039698,2153313746,2924,1,17,7426
1379546939,5812,63.6500015258789060,25.9023990631103500,35.3188018798828100,248.4779968261718800,-22.2266693115234380,25.8721504211425780,26.9846591949462900,66,124,91,86,55,15081,2278146788,2284941851,2281892754,2156732480,2230850395,2239535094,2221221906,2155092909,111,1,16,9542
1379546994,5810,62.5999984741210940,26.0121994018554700,35.3190994262695300,248.1719970703125000,-25.4610290527343750,25.9735908508300780,26.9585094451904300,66,124,92,87,57,15075,2276928832,2282619748,2278572452,2156793865,2232196918,2240401280,2221388178,2155097755,202,1,16,19765
1379547222,5807,60.6500015258789060,26.5494003295898440,35.3370018005371100,245.5742034912109400,-42.2219314575195300,26.5003890991210940,26.8664608001709000,63,126,94,85,60,15078,2230618093,2230386752,2224264000,2153053092,2205201892,2207342509,2192640832,2151994395,1187,1,16,64927
1379547450,5809,58.1500015258789060,26.8899993896484380,35.3503990173339840,240.6157073974609400,-53.7457199096679700,26.8637104034423830,26.9411201477050780,63,130,92,85,54,15041,2294403026,2296307876,2287585261,2159485339,2253139721,2257396370,2229638198,2156292187,1388,2,16,7983
1379547517,5803,56.0900001525878900,27.2625007629394530,35.3548011779785160,238.0971069335937500,-64.4571533203125000,27.2022895812988280,26.9217090606689450,63,128,92,85,59,15070,2283031332,2283659300,2274493028,2158631890,2248370084,2250868516,2223849444,2155680667,1846,2,16,23520
1379547744,5808,54.3300018310546900,27.5326995849609380,35.3268013000488300,233.1056976318359400,-74.6611175537109400,27.5256309509277340,27.0202903747558600,57,125,93,84,53,15079,2292693394,2292191040,2283050002,2160352539,2260545600,2262460233,2231807780,2156674249,3413,0,17,12023
1379547859,5806,52.4799995422363300,27.7162990570068360,35.3021011352539060,228.6331024169922000,-80.5264663696289000,27.7118606567382800,27.1525993347167970,56,122,90,85,55,15098,2299909494,2298816274,2289101101,2161907044,2267967387,2268231259,2234829211,2157243904,642,0,17,59371
1379547998,5805,50.5499992370605500,27.7805995941162100,35.2886009216308600,226.3733062744140600,-83.0618667602539000,27.7924404144287100,27.2261009216308600,55,122,90,84,54,15104,2301862930,2300656484,2291450989,2163414656,2273161307,2272308882,2237230308,2157689709,422,0,16,29115
1379548119,5809,48.3899993896484400,27.8553009033203120,35.2654991149902340,224.4120941162109400,-85.1163635253906200,27.8577804565429700,27.2925605773925780,54,120,91,83,59,15106,2299590820,2297212662,2287524955,2164042770,2281259949,2277266971,2238772635,2157964214,133,0,17,3031
1379548222,5810,46.4199981689453100,27.8666992187500000,35.2630004882812500,223.2646942138672000,-85.7630767822265600,27.8783607482910160,27.3388004302978500,53,120,89,84,52,15111,2313422784,2311441490,2302180635,2168339812,2308900562,2301543323,2253745362,2159881645,3099,0,17,11154
1379548313,5807,44.2900009155273440,27.8710002899169920,35.2611999511718750,223.0733947753906200,-85.8490371704101600,27.8810901641845700,27.3468093872070300,52,118,87,84,57,15112,2304070573,2301892781,2292313078,2168139565,2311123812,2300235282,2250275803,2159449892,2728,1,16,55000
1379548398,5809,40.7599983215332000,27.8717994689941400,35.2601013183593750,222.9721069335937500,-85.6294403076171900,27.8740997314453120,27.3542098999023440,53,120,91,83,53,15108,2298692150,2295751670,2287010404,2171452004,2315540288,2300153353,2247494500,2159887113,2557,0,17,57233
1379548453,5808,37.3400001525878900,27.8724002838134770,35.2592010498046900,222.9981994628906200,-85.6271667480468800,27.8740291595459000,27.3530998229980470,53,121,91,84,54,15111,2386871533,2389563876,2382655469,2194151634,2417012928,2396210386,2313090514,2169763739,2301,1,16,35988
1379548508,5805,33.6899986267089840,27.8731994628906250,35.2580986022949200,223.1253051757812500,-85.7095031738281200,27.8766498565673830,27.3461208343505860,52,118,91,84,56,15107,2415044406,2419184530,2415215177,2211965202,2452735314,2425988982,2330415963,2174083803,2185,0,17,60154
1379548563,5807,29.9899997711181640,27.8750991821289060,35.2575988769531250,223.2384033203125000,-85.8605575561523400,27.8814601898193360,27.3388500213623050,52,117,91,83,50,15112,2470020662,2478140827,2478491392,2241569508,2536823616,2503250477,2382832667,2185261997,2193,0,16,51413
1379548618,5804,26.3600006103515620,27.8759002685546880,35.2575988769531250,223.1842041015625000,-85.9437637329101600,27.8840999603271500,27.3403701782226560,51,119,90,82,54,15108,2435078153,2436563584,2433105188,2237802697,2518560850,2482278390,2367014546,2184602459,2044,0,17,6468